Simultaneous Nadir Overpasses (SNOs) Predictions

Prediction of SNOs over PacNW region [( 10.00, 139.50) to ( 22.70, 165.60)] between NOAA-19 and NPP Satellites:

Table of predicted SNOs over PacNW region for the next 30.0 days since TLE Epoch: 7/30/2013
Index Date (NOAA-19) Time (NOAA-19) NOAA-19 Lat,Lon Date (NPP) Time (NPP) NPP Lat,Lon Distance(km) Time Diff (sec)
1 08/03/2013 03:42:26 16.40, 146.73 08/03/2013 03:44:13 15.51, 142.76 436.20 107
2 08/03/2013 16:19:18 14.01, 142.37 08/03/2013 16:16:49 14.69, 139.34 334.95 149
3 08/15/2013 15:47:17 22.60, 151.94 08/15/2013 15:49:12 23.56, 147.81 436.56 115
4 08/16/2013 03:03:40 22.69, 155.39 08/16/2013 03:01:57 22.07, 152.23 332.63 103
5 08/28/2013 02:31:26 13.41, 165.14 08/28/2013 02:34:05 12.39, 160.86 477.31 159
